Weather History for Ardmore, OK

Change the Weather History Date:

Sunday, November 24, 2013

  Actual Average Record
Temperature  
Mean Temperature 32 °F -  
Max Temperature 33 °F 59 °F 80 °F (2010)
Min Temperature 30 °F 40 °F 24 °F (2003)
Degree Days  
Heating Degree Days 34    
Moisture  
Dew Point 23 °F    
Average Humidity 71    
Maximum Humidity 89    
Minimum Humidity 54    
Precipitation  
Precipitation 0.00 in - - ()
Sea Level Pressure  
Sea Level Pressure 30.55 in    
Wind  
Wind Speed 8 mph (NNE)    
Max Wind Speed 12 mph    
Max Gust Speed 17 mph    
Visibility 10 miles    
Events      
Averages and records for this station are not official NWS values.
T = Trace of Precipitation, MM = Missing Value Source: NWS Daily Summary

Daily Weather History Graph

Daily Weather History Graph

Search for Another Location

Airport:

Trip Planner

Search our weather history database for the weather conditions in past years. The results will help you decide how hot, cold, wet, or windy it might be!

Date:

Astronomy

Nov. 24, 2013 Rise Set
Actual Time 7:09 AM CST 5:19 PM CST
Civil Twilight 6:42 AM CST 5:46 PM CST
Nautical Twilight 6:12 AM CST 6:17 PM CST
Astronomical Twilight 5:41 AM CST 6:47 PM CST
Moon 11:38 PM CST (11/24) 12:05 PM CST (11/24)
Length of Visible Light 11h 03m
Length of Day
10h 09m
Waning Gibbous, 60% of the Moon is Illuminated
Nov 24
Waning Gibbous
Nov 25
Last Quarter
Dec 2
New
Dec 9
First Quarter
Dec 17
Full

Hourly Weather History & Observations

Time (CST) Temp. Windchill Dew Point Humidity Pressure Visibility Wind Dir Wind Speed Gust Speed Precip Events Conditions
12:15 AM 33.3 °F 25.1 °F 26.6 °F 77% 30.58 in 10.0 mi NNE 10.4 mph - N/A   Clear
12:35 AM 32.9 °F 24.1 °F 25.7 °F 75% 30.58 in 10.0 mi NNE 11.5 mph 16.1 mph N/A   Clear
12:55 AM 32.2 °F 25.8 °F 24.6 °F 74% 30.59 in 10.0 mi NNE 6.9 mph - N/A   Clear
1:15 AM 32.0 °F 24.8 °F 24.6 °F 74% 30.59 in 10.0 mi NNE 8.1 mph - N/A   Clear
1:35 AM 32.0 °F 26.4 °F 24.1 °F 73% 30.60 in 10.0 mi North 5.8 mph - N/A   Clear
1:55 AM 31.5 °F 24.9 °F 23.7 °F 73% 30.60 in 10.0 mi NNE 6.9 mph - N/A   Clear
2:15 AM 31.5 °F 24.2 °F 23.2 °F 71% 30.61 in 10.0 mi North 8.1 mph - N/A   Clear
2:35 AM 31.8 °F 25.4 °F 23.0 °F 70% 30.62 in 10.0 mi NNE 6.9 mph - N/A   Clear
2:55 AM 32.0 °F 24.8 °F 22.1 °F 67% 30.63 in 10.0 mi North 8.1 mph - N/A   Clear
3:15 AM 32.0 °F 24.2 °F 21.2 °F 64% 30.63 in 10.0 mi North 9.2 mph - N/A   Clear
3:35 AM 32.0 °F 24.2 °F 20.3 °F 62% 30.62 in 10.0 mi North 9.2 mph - N/A   Clear
3:55 AM 32.0 °F 24.2 °F 18.5 °F 58% 30.62 in 10.0 mi North 9.2 mph - N/A   Clear
4:15 AM 32.0 °F 24.2 °F 20.1 °F 62% 30.61 in 10.0 mi North 9.2 mph - N/A   Clear
4:35 AM 31.8 °F 23.9 °F 19.2 °F 60% 30.62 in 10.0 mi North 9.2 mph - N/A   Clear
4:55 AM 31.8 °F 23.3 °F 18.1 °F 57% 30.63 in 10.0 mi North 10.4 mph - N/A   Clear
5:15 AM 31.6 °F 22.6 °F 17.6 °F 56% 30.63 in 10.0 mi NNE 11.5 mph - N/A   Clear
5:35 AM 31.6 °F 22.6 °F 16.9 °F 54% 30.63 in 10.0 mi North 11.5 mph - N/A   Clear
6:55 AM - - - N/A% 30.63 in 10.0 mi North 10.4 mph 17.3 mph N/A   Clear
8:55 AM 30.2 °F 25.4 °F 19.4 °F 64% 30.61 in 10.0 mi North 4.6 mph - N/A   Scattered Clouds
9:55 AM 30.2 °F 25.4 °F 19.4 °F 64% 30.59 in 10.0 mi North 4.6 mph - N/A   Clear
10:55 AM 30.2 °F 23.4 °F 19.4 °F 64% 30.58 in 10.0 mi ENE 6.9 mph - N/A   Unknown
11:55 AM 32.0 °F 26.4 °F 21.2 °F 64% 30.55 in 10.0 mi NNE 5.8 mph - N/A   Scattered Clouds
12:55 PM 32.0 °F 25.6 °F 23.0 °F 69% 30.53 in 10.0 mi NNE 6.9 mph - N/A   Unknown
1:55 PM 30.2 °F 23.4 °F 23.0 °F 75% 30.50 in 10.0 mi NNE 6.9 mph - N/A   Scattered Clouds
2:55 PM 32.0 °F 25.6 °F 24.8 °F 75% 30.49 in 10.0 mi NNE 6.9 mph - N/A   Scattered Clouds
3:55 PM 30.2 °F 23.4 °F 24.8 °F 80% 30.47 in 10.0 mi NNE 6.9 mph - N/A   Mostly Cloudy
10:35 PM 31.1 °F - 27.7 °F 87% 30.38 in 10.0 mi Calm Calm - N/A   Overcast
10:55 PM 31.1 °F - 27.5 °F 87% 30.36 in 10.0 mi Calm Calm - N/A   Overcast
11:15 PM 31.1 °F 27.7 °F 27.5 °F 87% 30.36 in 10.0 mi SSE 3.5 mph - N/A   Mostly Cloudy
11:35 PM 31.3 °F - 27.9 °F 87% 30.35 in 10.0 mi Calm Calm - N/A   Overcast
11:55 PM 31.1 °F - 28.2 °F 89% 30.33 in 10.0 mi Calm Calm - N/A   Mostly Cloudy